contact:dominique.lefevre@mio.osupytheas.fr, maurice.libes@osupytheas.fr, didier.mallarino@osupytheas.fr
Project:EMSO http://www.emso-fr.org/EMSO-France
Depth: 2436.0 m
Title:EMSO Ligure Ouest : Data MII capteur AQUADOPP
Date,Latitude,Longitude,X_East,Y_North,Z_Up,Amplitude_X,Amplitude_Y,Amplitude_Z,Batterie,SoundSpeed,Heading,Pitch,Roll,Pressure,TIS,Speed,Direction
, degrees North, degrees East, m.s-1, m.s-1,m.s-1, 1, 1, 1, Volt, m.s-1, degree, degree, degree, dbar, degree_C, m.s-1, degree
2020-01-23T00:04:03,42.805,6.029,0.065,-0.037,-0.006,106.0,106.0,103.0,13.3,1505.2,324.0,-0.8,1.8,2470.207,13.3,0.074,119.7
2020-01-23T00:07:03,42.805,6.029,0.044,-0.046,-0.012,108.0,106.0,103.0,13.3,1505.3,324.9,-0.7,1.8,2470.154,13.31,0.063,136.3
2020-01-23T00:10:03,42.805,6.029,0.061,-0.04,-0.012,107.0,106.0,103.0,13.4,1505.3,323.0,-0.7,1.8,2470.172,13.31,0.072,123.3
2020-01-23T00:13:03,42.805,6.029,0.056,-0.064,-0.005,108.0,107.0,103.0,13.4,1505.3,325.6,-0.7,1.8,2470.12,13.32,0.085,138.8
2020-01-23T00:16:03,42.805,6.029,0.04,-0.031,-0.023,107.0,107.0,104.0,13.4,1505.3,326.8,-0.7,1.8,2470.136,13.32,0.05,127.8
2020-01-23T00:19:03,42.805,6.029,0.027,-0.03,-0.005,107.0,106.0,104.0,13.4,1505.3,326.9,-0.7,1.8,2470.149,13.32,0.04,138.0
2020-01-23T00:22:03,42.805,6.029,0.039,-0.052,-0.022,106.0,107.0,104.0,13.4,1505.3,322.6,-0.7,1.8,2470.132,13.32,0.064,143.1
2020-01-23T00:25:03,42.805,6.029,0.05,-0.053,0.0,106.0,107.0,104.0,13.4,1505.3,326.4,-0.7,1.8,2470.123,13.32,0.072,136.7
2020-01-23T00:28:03,42.805,6.029,0.039,-0.034,0.005,107.0,106.0,103.0,13.4,1505.3,328.2,-0.7,1.8,2470.171,13.32,0.051,131.1
2020-01-23T00:31:03,42.805,6.029,0.045,-0.049,-0.015,107.0,105.0,104.0,13.4,1505.3,326.7,-0.7,1.9,2470.139,13.32,0.066,137.4
2020-01-23T00:34:03,42.805,6.029,0.029,-0.043,-0.016,107.0,106.0,104.0,13.3,1505.3,327.9,-0.7,1.8,2470.152,13.32,0.051,146.0
2020-01-23T00:37:03,42.805,6.029,0.034,-0.036,-0.028,108.0,107.0,103.0,13.4,1505.3,326.3,-0.7,1.9,2470.144,13.32,0.049,136.6
2020-01-23T00:40:03,42.805,6.029,0.052,-0.047,-0.007,106.0,107.0,103.0,13.4,1505.3,324.9,-0.7,1.8,2470.154,13.32,0.07,132.1
2020-01-23T00:43:03,42.805,6.029,0.059,-0.058,-0.03,107.0,105.0,103.0,13.3,1505.3,323.3,-0.7,1.8,2470.125,13.32,0.082,134.5
2020-01-23T00:46:03,42.805,6.029,0.036,-0.049,-0.019,106.0,107.0,105.0,13.4,1505.3,328.0,-0.7,1.8,2470.149,13.32,0.06,143.7
2020-01-23T00:49:03,42.805,6.029,0.06,-0.053,-0.024,107.0,106.0,103.0,13.3,1505.3,326.9,-0.7,1.8,2470.165,13.32,0.08,131.5
2020-01-23T00:52:03,42.805,6.029,0.042,-0.033,-0.027,106.0,106.0,104.0,13.4,1505.3,323.5,-0.7,1.9,2470.167,13.32,0.053,128.2
2020-01-23T00:55:03,42.805,6.029,0.055,-0.051,0.01,107.0,107.0,103.0,13.4,1505.3,328.3,-0.7,1.8,2470.143,13.32,0.075,132.8
2020-01-23T00:58:03,42.805,6.029,0.063,-0.044,-0.03,108.0,106.0,104.0,13.3,1505.3,326.8,-0.7,1.8,2470.171,13.32,0.076,124.9
2020-01-23T01:04:03,42.805,6.029,0.015,-0.05,-0.056,108.0,107.0,105.0,13.3,1505.2,327.8,-0.7,1.9,2470.186,13.3,0.052,163.3
2020-01-23T01:07:03,42.805,6.029,0.037,-0.04,-0.001,108.0,108.0,103.0,13.4,1505.3,326.4,-0.7,1.8,2470.189,13.31,0.054,137.2
2020-01-23T01:10:03,42.805,6.029,0.057,-0.041,-0.026,107.0,107.0,104.0,13.4,1505.3,326.4,-0.8,1.8,2470.168,13.31,0.07,125.7
2020-01-23T01:13:03,42.805,6.029,0.05,-0.066,0.003,105.0,106.0,104.0,13.4,1505.3,324.6,-0.7,1.9,2470.173,13.32,0.082,142.8
2020-01-23T01:16:03,42.805,6.029,0.031,-0.023,0.004,107.0,107.0,104.0,13.4,1505.3,323.6,-0.7,1.8,2470.143,13.32,0.038,126.6
2020-01-23T01:19:03,42.805,6.029,0.056,-0.047,-0.018,107.0,106.0,103.0,13.3,1505.3,328.2,-0.7,1.8,2470.179,13.32,0.073,130.0
2020-01-23T01:22:03,42.805,6.029,0.074,-0.035,-0.006,106.0,107.0,103.0,13.4,1505.3,326.3,-0.7,1.8,2470.174,13.32,0.081,115.3
2020-01-23T01:25:03,42.805,6.029,0.05,-0.052,-0.004,107.0,107.0,103.0,13.4,1505.3,323.6,-0.7,1.8,2470.185,13.32,0.072,136.1
2020-01-23T01:28:03,42.805,6.029,0.07,-0.045,0.007,107.0,107.0,103.0,13.4,1505.3,324.8,-0.7,1.8,2470.216,13.32,0.083,122.7
2020-01-23T01:31:03,42.805,6.029,0.061,-0.037,-0.037,107.0,107.0,104.0,13.4,1505.3,322.9,-0.7,1.8,2470.193,13.32,0.071,121.2
2020-01-23T01:34:03,42.805,6.029,0.044,-0.031,-0.047,106.0,107.0,103.0,13.4,1505.3,325.9,-0.7,1.8,2470.202,13.32,0.053,125.2
2020-01-23T01:37:03,42.805,6.029,0.056,-0.033,-0.001,107.0,106.0,103.0,13.4,1505.3,327.8,-0.7,1.9,2470.207,13.32,0.064,120.5
2020-01-23T01:40:03,42.805,6.029,0.066,-0.035,-0.021,107.0,106.0,105.0,13.4,1505.3,326.0,-0.7,1.8,2470.221,13.32,0.074,117.9
2020-01-23T01:43:03,42.805,6.029,0.073,-0.044,-0.016,106.0,107.0,103.0,13.3,1505.3,326.5,-0.7,1.8,2470.194,13.32,0.085,121.1
2020-01-23T01:46:03,42.805,6.029,0.061,-0.055,-0.009,108.0,107.0,104.0,13.4,1505.3,326.6,-0.7,1.8,2470.162,13.32,0.082,132.0
2020-01-23T01:49:03,42.805,6.029,0.051,-0.047,-0.035,107.0,107.0,103.0,13.3,1505.3,328.4,-0.7,1.8,2470.144,13.32,0.069,132.7
2020-01-23T01:52:03,42.805,6.029,0.068,-0.055,-0.013,106.0,107.0,102.0,13.3,1505.3,326.8,-0.7,1.8,2470.16,13.32,0.087,129.0
2020-01-23T01:55:03,42.805,6.029,0.054,-0.044,-0.045,108.0,107.0,104.0,13.4,1505.3,328.7,-0.7,1.8,2470.177,13.32,0.069,129.2
2020-01-23T01:58:03,42.805,6.029,0.042,-0.035,-0.04,107.0,106.0,104.0,13.3,1505.3,323.3,-0.7,1.8,2470.213,13.32,0.054,129.8
2020-01-23T02:04:03,42.805,6.029,0.052,-0.025,-0.008,107.0,107.0,104.0,13.4,1505.2,324.0,-0.8,1.8,2470.234,13.3,0.057,115.7
2020-01-23T02:07:03,42.805,6.029,0.049,-0.048,-0.02,107.0,106.0,104.0,13.4,1505.3,324.6,-0.7,1.9,2470.225,13.31,0.068,134.4
2020-01-23T02:10:03,42.805,6.029,0.063,-0.024,0.008,108.0,107.0,104.0,13.4,1505.3,327.9,-0.7,1.9,2470.196,13.31,0.067,110.9
2020-01-23T02:13:03,42.805,6.029,0.04,-0.015,-0.025,108.0,107.0,103.0,13.4,1505.3,324.3,-0.7,1.9,2470.194,13.32,0.042,110.6
2020-01-23T02:16:03,42.805,6.029,0.069,-0.04,-0.034,108.0,106.0,103.0,13.3,1505.3,323.6,-0.7,1.9,2470.196,13.32,0.079,120.1
2020-01-23T02:19:03,42.805,6.029,0.053,-0.031,-0.031,107.0,106.0,103.0,13.4,1505.3,325.2,-0.7,1.9,2470.196,13.32,0.061,120.3
2020-01-23T02:22:03,42.805,6.029,0.046,-0.034,0.001,108.0,106.0,104.0,13.4,1505.3,324.8,-0.7,1.9,2470.206,13.32,0.057,126.5
2020-01-23T02:25:03,42.805,6.029,0.055,-0.028,-0.006,106.0,106.0,104.0,13.3,1505.3,325.2,-0.7,1.8,2470.198,13.32,0.061,117.0
2020-01-23T02:28:03,42.805,6.029,0.037,-0.041,-0.018,107.0,108.0,104.0,13.4,1505.3,325.0,-0.7,1.8,2470.232,13.32,0.055,137.9
2020-01-23T02:31:03,42.805,6.029,0.062,0.0,-0.034,106.0,107.0,104.0,13.4,1505.3,326.4,-0.7,1.8,2470.188,13.32,0.061,90.0
2020-01-23T02:34:03,42.805,6.029,0.039,-0.031,-0.042,107.0,108.0,104.0,13.4,1505.3,326.3,-0.7,1.8,2470.218,13.32,0.049,128.5
2020-01-23T02:37:03,42.805,6.029,0.065,-0.037,0.001,106.0,107.0,104.0,13.4,1505.3,327.0,-0.7,1.8,2470.193,13.32,0.074,119.7
2020-01-23T02:40:03,42.805,6.029,0.078,-0.077,-0.031,107.0,106.0,102.0,13.4,1505.3,324.9,-0.7,1.8,2470.21,13.32,0.109,134.6
2020-01-23T02:43:03,42.805,6.029,0.061,-0.041,-0.004,106.0,107.0,103.0,13.3,1505.3,323.8,-0.7,1.8,2470.215,13.32,0.073,123.9
2020-01-23T02:46:03,42.805,6.029,0.081,-0.046,-0.012,106.0,107.0,104.0,13.3,1505.3,327.2,-0.7,1.8,2470.221,13.32,0.093,119.6
2020-01-23T02:49:03,42.805,6.029,0.075,-0.056,-0.001,108.0,106.0,104.0,13.3,1505.3,325.9,-0.7,1.9,2470.207,13.32,0.093,126.7
2020-01-23T02:52:03,42.805,6.029,0.053,-0.047,-0.015,107.0,106.0,104.0,13.4,1505.3,328.1,-0.7,1.8,2470.203,13.32,0.07,131.6
2020-01-23T02:55:03,42.805,6.029,0.066,-0.055,-0.053,106.0,108.0,102.0,13.3,1505.3,326.3,-0.7,1.8,2470.233,13.32,0.085,129.8
2020-01-23T02:58:03,42.805,6.029,0.068,-0.052,-0.008,106.0,107.0,104.0,13.4,1505.3,325.8,-0.7,1.8,2470.245,13.32,0.085,127.4
2020-01-23T03:04:03,42.805,6.029,0.075,-0.049,0.0,107.0,106.0,104.0,13.3,1505.2,323.4,-0.8,1.8,2470.259,13.3,0.089,123.2
2020-01-23T03:07:03,42.805,6.029,0.066,-0.045,-0.031,106.0,106.0,104.0,13.3,1505.3,326.0,-0.7,1.8,2470.216,13.31,0.079,124.3
2020-01-23T03:10:03,42.805,6.029,0.064,-0.039,-0.005,106.0,107.0,104.0,13.4,1505.3,327.5,-0.7,1.8,2470.264,13.31,0.074,121.4
2020-01-23T03:13:03,42.805,6.029,0.074,-0.045,-0.025,107.0,106.0,104.0,13.4,1505.3,326.2,-0.7,1.9,2470.267,13.32,0.086,121.3
2020-01-23T03:19:03,42.805,6.029,0.066,-0.043,-0.013,106.0,107.0,103.0,13.3,1505.2,327.3,-0.7,1.8,2470.365,13.3,0.078,123.1
2020-01-23T03:22:03,42.805,6.029,0.07,-0.024,-0.031,108.0,108.0,103.0,13.3,1505.3,325.1,-0.7,1.8,2470.257,13.31,0.073,108.9
2020-01-23T03:25:03,42.805,6.029,0.071,-0.045,0.009,106.0,106.0,105.0,13.3,1505.3,327.0,-0.7,1.8,2470.281,13.31,0.084,122.4
2020-01-23T03:28:03,42.805,6.029,0.056,-0.047,-0.004,107.0,108.0,104.0,13.4,1505.3,327.3,-0.7,1.8,2470.304,13.31,0.073,130.0
2020-01-23T03:31:03,42.805,6.029,0.06,-0.043,0.021,108.0,106.0,103.0,13.3,1505.3,327.6,-0.7,1.9,2470.292,13.32,0.073,125.6
2020-01-23T03:34:03,42.805,6.029,0.083,-0.044,-0.028,108.0,106.0,105.0,13.4,1505.3,326.8,-0.7,1.8,2470.29,13.32,0.093,117.9
2020-01-23T03:37:03,42.805,6.029,0.057,-0.061,0.002,107.0,107.0,105.0,13.4,1505.3,323.0,-0.7,1.8,2470.323,13.32,0.083,136.9
2020-01-23T03:40:03,42.805,6.029,0.067,-0.034,-0.012,107.0,108.0,105.0,13.4,1505.3,326.4,-0.7,1.8,2470.28,13.32,0.075,116.9
2020-01-23T03:43:03,42.805,6.029,0.059,-0.018,-0.03,108.0,108.0,103.0,13.3,1505.3,324.0,-0.7,1.9,2470.277,13.32,0.061,107.0
2020-01-23T03:46:03,42.805,6.029,0.055,-0.058,-0.011,106.0,107.0,103.0,13.3,1505.3,329.0,-0.7,1.8,2470.309,13.32,0.079,136.5
2020-01-23T03:49:03,42.805,6.029,0.063,-0.04,-0.024,107.0,108.0,105.0,13.4,1505.3,323.3,-0.7,1.8,2470.302,13.32,0.074,122.4
2020-01-23T03:52:03,42.805,6.029,0.052,-0.042,-0.007,108.0,106.0,104.0,13.4,1505.3,326.9,-0.7,1.8,2470.278,13.32,0.066,128.9
2020-01-23T03:55:03,42.805,6.029,0.038,-0.047,-0.042,107.0,106.0,104.0,13.4,1505.3,324.8,-0.7,1.8,2470.294,13.32,0.06,141.0
2020-01-23T03:58:03,42.805,6.029,0.058,-0.042,-0.023,107.0,107.0,103.0,13.3,1505.3,328.0,-0.7,1.8,2470.319,13.32,0.071,125.9
2020-01-23T04:04:03,42.805,6.029,0.032,-0.022,-0.019,107.0,106.0,104.0,13.3,1505.2,327.0,-0.7,1.8,2470.34,13.3,0.038,124.5
2020-01-23T04:07:03,42.805,6.029,0.066,-0.024,-0.009,107.0,107.0,103.0,13.4,1505.3,324.5,-0.8,1.8,2470.296,13.31,0.07,110.0
2020-01-23T04:10:03,42.805,6.029,0.056,-0.046,-0.022,107.0,106.0,104.0,13.4,1505.3,326.2,-0.7,1.9,2470.315,13.31,0.072,129.4
2020-01-23T04:13:03,42.805,6.029,0.052,-0.029,0.006,107.0,107.0,104.0,13.4,1505.3,324.5,-0.7,1.8,2470.301,13.32,0.059,119.1
2020-01-23T04:16:03,42.805,6.029,0.035,-0.036,-0.028,108.0,107.0,104.0,13.3,1505.3,327.7,-0.7,1.9,2470.346,13.32,0.05,135.8
2020-01-23T04:19:03,42.805,6.029,0.044,-0.048,-0.028,106.0,106.0,106.0,13.4,1505.3,325.2,-0.7,1.8,2470.305,13.32,0.065,137.5
2020-01-23T04:22:03,42.805,6.029,0.051,-0.041,-0.01,107.0,109.0,104.0,13.4,1505.3,326.3,-0.7,1.8,2470.317,13.32,0.065,128.8
2020-01-23T04:25:03,42.805,6.029,0.094,-0.033,-0.003,107.0,107.0,103.0,13.4,1505.3,323.2,-0.7,1.9,2470.298,13.32,0.099,109.3
2020-01-23T04:28:03,42.805,6.029,0.047,-0.049,-0.033,107.0,106.0,104.0,13.4,1505.3,328.4,-0.7,1.8,2470.302,13.32,0.067,136.2
2020-01-23T04:31:03,42.805,6.029,0.056,-0.038,-0.02,107.0,106.0,104.0,13.4,1505.3,326.8,-0.7,1.8,2470.28,13.32,0.067,124.2
2020-01-23T04:34:03,42.805,6.029,0.063,-0.056,-0.015,107.0,105.0,104.0,13.4,1505.3,324.5,-0.8,1.8,2470.345,13.32,0.084,131.6
2020-01-23T04:37:03,42.805,6.029,0.066,-0.063,-0.022,107.0,106.0,104.0,13.4,1505.3,327.6,-0.7,1.8,2470.357,13.32,0.091,133.7
2020-01-23T04:40:03,42.805,6.029,0.065,-0.025,-0.005,107.0,107.0,104.0,13.4,1505.3,325.9,-0.7,1.8,2470.313,13.32,0.069,111.0
2020-01-23T04:43:03,42.805,6.029,0.059,-0.063,-0.033,106.0,105.0,103.0,13.4,1505.3,327.3,-0.7,1.8,2470.317,13.32,0.086,136.9
2020-01-23T04:46:03,42.805,6.029,0.062,-0.049,-0.005,106.0,108.0,103.0,13.4,1505.3,325.2,-0.7,1.8,2470.351,13.32,0.079,128.3
2020-01-23T04:49:03,42.805,6.029,0.062,-0.059,-0.008,106.0,106.0,104.0,13.3,1505.3,324.9,-0.7,1.8,2470.341,13.32,0.085,133.6
2020-01-23T04:52:03,42.805,6.029,0.051,-0.034,-0.045,107.0,107.0,103.0,13.4,1505.3,328.1,-0.7,1.8,2470.348,13.32,0.061,123.7
2020-01-23T04:55:03,42.805,6.029,0.073,-0.054,0.008,107.0,106.0,105.0,13.4,1505.3,327.3,-0.7,1.8,2470.3,13.32,0.09,126.5
2020-01-23T04:58:03,42.805,6.029,0.078,-0.057,0.0,107.0,106.0,104.0,13.4,1505.3,327.7,-0.7,1.8,2470.326,13.32,0.096,126.2
2020-01-23T05:04:03,42.805,6.029,0.06,-0.046,-0.001,107.0,106.0,104.0,13.4,1505.2,328.2,-0.8,1.8,2470.394,13.3,0.075,127.5
2020-01-23T05:07:03,42.805,6.029,0.076,-0.043,0.0,108.0,107.0,103.0,13.3,1505.3,323.1,-0.7,1.8,2470.359,13.31,0.087,119.5
2020-01-23T05:10:03,42.805,6.029,0.066,-0.035,-0.007,107.0,106.0,104.0,13.4,1505.3,326.3,-0.7,1.8,2470.357,13.31,0.074,117.9
2020-01-23T05:13:03,42.805,6.029,0.052,-0.034,0.014,108.0,105.0,103.0,13.4,1505.3,328.6,-0.7,1.9,2470.373,13.32,0.062,123.2
2020-01-23T05:16:03,42.805,6.029,0.044,-0.03,0.009,107.0,106.0,103.0,13.4,1505.3,327.3,-0.7,1.9,2470.382,13.32,0.053,124.3
2020-01-23T05:19:03,42.805,6.029,0.044,-0.031,-0.014,107.0,106.0,103.0,13.4,1505.3,325.0,-0.7,1.8,2470.388,13.32,0.053,125.2
2020-01-23T05:22:03,42.805,6.029,0.048,-0.047,0.004,107.0,107.0,103.0,13.4,1505.3,324.5,-0.7,1.9,2470.358,13.32,0.067,134.4
2020-01-23T05:25:03,42.805,6.029,0.036,-0.057,-0.022,107.0,108.0,105.0,13.4,1505.3,326.8,-0.7,1.8,2470.354,13.32,0.067,147.7
2020-01-23T05:28:03,42.805,6.029,0.063,-0.033,-0.011,106.0,107.0,103.0,13.3,1505.3,324.7,-0.7,1.8,2470.395,13.32,0.071,117.6
2020-01-23T05:31:03,42.805,6.029,0.043,-0.034,-0.023,107.0,107.0,104.0,13.3,1505.3,325.0,-0.7,1.8,2470.362,13.32,0.054,128.3
2020-01-23T05:34:03,42.805,6.029,0.053,-0.053,-0.011,108.0,108.0,104.0,13.4,1505.3,323.2,-0.7,1.9,2470.365,13.32,0.074,135.0
2020-01-23T05:37:03,42.805,6.029,0.04,-0.04,-0.023,106.0,107.0,104.0,13.4,1505.3,328.3,-0.8,1.9,2470.389,13.32,0.056,135.0
2020-01-23T05:40:03,42.805,6.029,0.066,-0.058,-0.016,107.0,106.0,104.0,13.3,1505.3,326.2,-0.7,1.8,2470.401,13.32,0.087,131.3
2020-01-23T05:43:03,42.805,6.029,0.075,-0.031,-0.012,107.0,107.0,103.0,13.3,1505.3,326.6,-0.7,1.8,2470.393,13.32,0.081,112.5
2020-01-23T05:46:03,42.805,6.029,0.071,-0.034,-0.005,106.0,106.0,104.0,13.4,1505.3,325.0,-0.7,1.8,2470.363,13.32,0.078,115.6
2020-01-23T05:49:03,42.805,6.029,0.059,-0.051,0.0,108.0,106.0,103.0,13.4,1505.3,324.6,-0.7,1.8,2470.342,13.32,0.077,130.8
2020-01-23T05:52:03,42.805,6.029,0.059,-0.04,-0.001,106.0,107.0,103.0,13.3,1505.3,327.9,-0.7,1.8,2470.371,13.32,0.071,124.1
2020-01-23T05:55:03,42.805,6.029,0.075,-0.051,-0.006,108.0,105.0,104.0,13.3,1505.3,326.5,-0.7,1.9,2470.353,13.32,0.09,124.2
2020-01-23T05:58:03,42.805,6.029,0.034,-0.055,-0.029,107.0,107.0,104.0,13.3,1505.3,326.2,-0.7,1.8,2470.389,13.32,0.064,148.3
2020-01-23T06:04:03,42.805,6.029,0.05,-0.03,-0.025,106.0,107.0,103.0,13.3,1505.2,326.7,-0.7,1.8,2470.422,13.3,0.058,121.0
2020-01-23T06:07:03,42.805,6.029,0.048,-0.051,-0.016,106.0,107.0,104.0,13.4,1505.3,327.8,-0.7,1.8,2470.412,13.31,0.07,136.7
2020-01-23T06:10:03,42.805,6.029,0.02,-0.035,-0.041,107.0,106.0,104.0,13.4,1505.3,326.5,-0.7,1.8,2470.396,13.31,0.04,150.3
2020-01-23T06:13:03,42.805,6.029,0.064,-0.034,-0.037,107.0,106.0,103.0,13.3,1505.3,326.6,-0.7,1.9,2470.365,13.32,0.072,118.0
2020-01-23T06:16:03,42.805,6.029,0.041,-0.039,-0.051,107.0,106.0,103.0,13.4,1505.3,327.4,-0.7,1.8,2470.418,13.32,0.056,133.6
2020-01-23T06:19:03,42.805,6.029,0.042,-0.032,-0.034,107.0,106.0,103.0,13.4,1505.3,325.9,-0.7,1.9,2470.47,13.32,0.052,127.3
2020-01-23T06:22:03,42.805,6.029,0.049,-0.05,-0.025,108.0,108.0,104.0,13.3,1505.3,327.6,-0.7,1.8,2470.436,13.32,0.07,135.6
2020-01-23T06:25:03,42.805,6.029,0.033,-0.025,-0.031,107.0,106.0,105.0,13.3,1505.3,326.0,-0.7,1.8,2470.406,13.32,0.041,127.1
2020-01-23T06:28:03,42.805,6.029,0.073,-0.063,-0.035,106.0,107.0,103.0,13.4,1505.3,325.6,-0.7,1.8,2470.409,13.32,0.096,130.8
2020-01-23T06:31:03,42.805,6.029,0.058,-0.041,-0.001,107.0,107.0,103.0,13.4,1505.3,326.3,-0.7,1.8,2470.396,13.32,0.071,125.3
2020-01-23T06:34:03,42.805,6.029,0.061,-0.046,-0.021,107.0,106.0,104.0,13.4,1505.3,328.5,-0.7,1.8,2470.382,13.32,0.076,127.0
2020-01-23T06:37:03,42.805,6.029,0.033,-0.051,-0.026,107.0,107.0,105.0,13.4,1505.3,325.6,-0.7,1.8,2470.396,13.32,0.06,147.1
2020-01-23T06:40:03,42.805,6.029,0.031,-0.041,-0.014,106.0,108.0,104.0,13.3,1505.3,324.9,-0.7,1.8,2470.404,13.32,0.051,142.9
2020-01-23T06:43:03,42.805,6.029,0.047,-0.038,-0.027,106.0,106.0,103.0,13.4,1505.3,328.1,-0.7,1.8,2470.414,13.32,0.06,129.0
2020-01-23T06:46:03,42.805,6.029,0.054,-0.042,0.004,107.0,107.0,104.0,13.4,1505.3,324.6,-0.7,1.8,2470.352,13.32,0.068,127.9
2020-01-23T06:52:03,42.805,6.029,0.039,-0.036,-0.017,107.0,108.0,103.0,13.4,1505.2,327.6,-0.7,1.8,2470.437,13.3,0.053,132.7
2020-01-23T06:55:03,42.805,6.029,0.083,-0.054,-0.018,106.0,107.0,103.0,13.3,1505.3,323.7,-0.7,1.8,2470.448,13.31,0.099,123.1
2020-01-23T06:58:03,42.805,6.029,0.052,-0.049,-0.043,107.0,107.0,103.0,13.3,1505.3,324.6,-0.7,1.9,2470.46,13.31,0.071,133.3
2020-01-23T07:04:03,42.805,6.029,0.039,-0.041,-0.034,108.0,107.0,104.0,13.4,1505.2,325.1,-0.7,1.8,2470.43,13.3,0.056,136.4
2020-01-23T07:07:03,42.805,6.029,0.063,-0.053,-0.036,107.0,107.0,104.0,13.3,1505.3,328.7,-0.7,1.9,2470.419,13.31,0.082,130.1
2020-01-23T07:10:03,42.805,6.029,0.023,-0.026,-0.034,105.0,108.0,105.0,13.3,1505.3,325.5,-0.7,1.8,2470.44,13.31,0.034,138.5
2020-01-23T07:13:03,42.805,6.029,0.038,-0.043,-0.015,107.0,107.0,104.0,13.4,1505.3,325.7,-0.7,1.8,2470.433,13.31,0.057,138.5
2020-01-23T07:16:03,42.805,6.029,0.036,-0.037,-0.03,108.0,107.0,103.0,13.3,1505.3,324.2,-0.7,1.8,2470.411,13.32,0.051,135.8
2020-01-23T07:19:03,42.805,6.029,0.034,-0.037,-0.018,108.0,107.0,103.0,13.3,1505.3,327.7,-0.7,1.8,2470.413,13.32,0.05,137.4
2020-01-23T07:22:03,42.805,6.029,0.032,-0.039,-0.03,107.0,106.0,104.0,13.4,1505.3,324.9,-0.7,1.8,2470.418,13.32,0.05,140.6
2020-01-23T07:25:03,42.805,6.029,0.05,-0.042,-0.031,107.0,107.0,103.0,13.4,1505.3,328.5,-0.7,1.8,2470.402,13.32,0.065,130.0
2020-01-23T07:28:03,42.805,6.029,0.05,-0.038,-0.046,107.0,107.0,104.0,13.4,1505.3,327.2,-0.7,1.8,2470.429,13.32,0.062,127.2
2020-01-23T07:31:03,42.805,6.029,0.035,-0.026,-0.021,108.0,107.0,104.0,13.3,1505.3,323.3,-0.7,1.8,2470.374,13.32,0.043,126.6
2020-01-23T07:34:03,42.805,6.029,0.007,-0.022,-0.009,108.0,107.0,103.0,13.4,1505.3,324.7,-0.7,1.8,2470.399,13.32,0.023,162.4
2020-01-23T07:37:03,42.805,6.029,0.038,-0.033,-0.039,108.0,107.0,104.0,13.4,1505.3,327.0,-0.7,1.8,2470.395,13.32,0.05,131.0
2020-01-23T07:43:03,42.805,6.029,0.028,-0.032,-0.016,108.0,106.0,104.0,13.4,1505.2,325.7,-0.8,1.8,2470.43,13.3,0.042,138.8
2020-01-23T07:46:03,42.805,6.029,0.017,-0.027,-0.016,109.0,107.0,104.0,13.4,1505.3,323.9,-0.7,1.8,2470.409,13.31,0.031,147.8
2020-01-23T07:49:03,42.805,6.029,0.031,-0.046,0.005,108.0,107.0,103.0,13.4,1505.3,323.2,-0.7,1.8,2470.405,13.31,0.055,146.0
2020-01-23T07:52:03,42.805,6.029,0.023,-0.046,-0.012,106.0,107.0,103.0,13.3,1505.3,326.9,-0.7,1.8,2470.402,13.32,0.051,153.4
2020-01-23T07:55:03,42.805,6.029,0.018,-0.03,-0.023,108.0,107.0,104.0,13.4,1505.3,326.8,-0.7,1.8,2470.392,13.32,0.034,149.0
2020-01-23T07:58:03,42.805,6.029,0.03,-0.03,-0.007,108.0,108.0,103.0,13.4,1505.3,326.6,-0.7,1.8,2470.396,13.32,0.042,135.0
2020-01-23T08:04:03,42.805,6.029,0.019,-0.043,0.0,106.0,107.0,104.0,13.4,1505.2,326.5,-0.8,1.8,2470.435,13.3,0.047,156.2
2020-01-23T08:07:03,42.805,6.029,0.028,-0.042,-0.055,108.0,107.0,102.0,13.4,1505.3,324.8,-0.7,1.8,2470.462,13.31,0.05,146.3
2020-01-23T08:10:03,42.805,6.029,0.035,-0.037,-0.017,107.0,108.0,104.0,13.4,1505.3,325.6,-0.7,1.8,2470.395,13.31,0.05,136.6
2020-01-23T08:13:03,42.805,6.029,0.036,-0.036,0.0,107.0,107.0,103.0,13.4,1505.3,324.4,-0.7,1.8,2470.41,13.32,0.05,135.0
2020-01-23T08:16:03,42.805,6.029,0.028,-0.038,-0.002,109.0,106.0,104.0,13.3,1505.3,327.0,-0.7,1.8,2470.357,13.32,0.047,143.6
2020-01-23T08:19:03,42.805,6.029,0.04,-0.047,-0.037,107.0,108.0,102.0,13.4,1505.3,324.2,-0.7,1.9,2470.426,13.32,0.061,139.6
2020-01-23T08:22:03,42.805,6.029,0.027,-0.051,-0.002,107.0,108.0,104.0,13.3,1505.3,324.3,-0.7,1.9,2470.385,13.32,0.057,152.1
2020-01-23T08:25:03,42.805,6.029,0.03,-0.062,0.0,108.0,108.0,103.0,13.4,1505.3,326.5,-0.7,1.8,2470.379,13.32,0.068,154.2
2020-01-23T08:28:03,42.805,6.029,0.006,-0.02,-0.008,107.0,108.0,104.0,13.4,1505.3,326.2,-0.7,1.8,2470.39,13.32,0.02,163.3
2020-01-23T08:31:03,42.805,6.029,0.037,-0.043,-0.018,109.0,107.0,104.0,13.4,1505.3,323.9,-0.7,1.8,2470.366,13.32,0.056,139.3
2020-01-23T08:34:03,42.805,6.029,0.009,-0.042,-0.026,108.0,108.0,104.0,13.3,1505.3,327.3,-0.7,1.8,2470.394,13.32,0.042,167.9
2020-01-23T08:37:03,42.805,6.029,0.009,-0.049,-0.023,108.0,108.0,105.0,13.4,1505.3,323.8,-0.7,1.8,2470.385,13.32,0.049,169.6
2020-01-23T08:40:03,42.805,6.029,-0.005,-0.039,-0.033,106.0,108.0,103.0,13.4,1505.3,325.9,-0.7,1.8,2470.355,13.32,0.039,187.3
2020-01-23T08:43:03,42.805,6.029,0.031,-0.047,-0.004,107.0,108.0,105.0,13.4,1505.3,327.6,-0.7,1.8,2470.38,13.32,0.056,146.6
2020-01-23T08:46:03,42.805,6.029,0.033,-0.026,-0.043,108.0,106.0,104.0,13.4,1505.3,326.9,-0.7,1.8,2470.376,13.32,0.042,128.2
2020-01-23T08:49:03,42.805,6.029,0.021,-0.046,-0.015,109.0,110.0,103.0,13.4,1505.3,327.8,-0.7,1.8,2470.376,13.32,0.05,155.5
2020-01-23T08:52:03,42.805,6.029,0.043,-0.053,0.0,108.0,109.0,104.0,13.4,1505.3,324.7,-0.7,1.8,2470.328,13.32,0.068,140.9
2020-01-23T08:55:03,42.805,6.029,0.033,-0.029,-0.018,107.0,108.0,104.0,13.4,1505.3,325.3,-0.7,1.8,2470.374,13.32,0.043,131.3
2020-01-23T08:58:03,42.805,6.029,0.016,-0.051,0.022,107.0,108.0,104.0,13.4,1505.3,325.3,-0.7,1.8,2470.367,13.32,0.053,162.6
2020-01-23T09:04:03,42.805,6.029,0.009,-0.033,-0.028,108.0,108.0,104.0,13.4,1505.2,325.1,-0.7,1.8,2470.405,13.3,0.034,164.7
2020-01-23T09:07:03,42.805,6.029,0.011,-0.059,-0.014,108.0,108.0,104.0,13.4,1505.3,325.5,-0.7,1.8,2470.395,13.31,0.06,169.4
2020-01-23T09:10:03,42.805,6.029,0.015,-0.03,0.02,109.0,108.0,104.0,13.4,1505.3,326.2,-0.7,1.9,2470.398,13.31,0.033,153.4
2020-01-23T09:13:03,42.805,6.029,0.008,-0.015,-0.034,108.0,108.0,103.0,13.4,1505.3,327.0,-0.7,1.8,2470.369,13.32,0.017,151.9
2020-01-23T09:16:03,42.805,6.029,0.013,-0.043,-0.03,108.0,108.0,103.0,13.4,1505.3,325.1,-0.7,1.8,2470.376,13.32,0.044,163.2
2020-01-23T09:19:03,42.805,6.029,0.019,-0.041,-0.048,107.0,109.0,104.0,13.3,1505.3,324.4,-0.7,1.8,2470.378,13.32,0.045,155.1
2020-01-23T09:22:03,42.805,6.029,0.031,-0.037,-0.005,108.0,108.0,105.0,13.3,1505.3,328.2,-0.7,1.8,2470.335,13.32,0.048,140.0
2020-01-23T09:25:03,42.805,6.029,0.051,-0.043,-0.033,108.0,108.0,104.0,13.3,1505.3,327.7,-0.7,1.8,2470.388,13.32,0.066,130.1
2020-01-23T09:28:03,42.805,6.029,0.005,-0.049,0.0,107.0,108.0,104.0,13.4,1505.3,326.6,-0.7,1.9,2470.388,13.32,0.049,174.2
2020-01-23T09:31:03,42.805,6.029,0.021,-0.019,0.016,109.0,108.0,105.0,13.3,1505.3,328.1,-0.7,1.8,2470.352,13.32,0.028,132.1
2020-01-23T09:34:03,42.805,6.029,0.001,-0.034,-0.035,109.0,110.0,104.0,13.4,1505.3,326.8,-0.8,1.8,2470.357,13.32,0.034,178.3
2020-01-23T09:37:03,42.805,6.029,0.019,-0.018,-0.02,108.0,108.0,105.0,13.4,1505.3,325.1,-0.7,1.8,2470.359,13.32,0.026,133.5
2020-01-23T09:40:03,42.805,6.029,-0.004,-0.046,-0.037,107.0,109.0,105.0,13.3,1505.3,328.3,-0.7,1.8,2470.351,13.32,0.046,185.0
2020-01-23T09:43:03,42.805,6.029,0.03,-0.039,-0.004,108.0,109.0,104.0,13.3,1505.3,323.3,-0.7,1.8,2470.335,13.32,0.049,142.4
2020-01-23T09:46:03,42.805,6.029,0.0,-0.045,-0.014,109.0,108.0,103.0,13.4,1505.3,327.2,-0.7,1.8,2470.377,13.32,0.045,180.0
2020-01-23T09:49:03,42.805,6.029,0.017,-0.044,-0.014,108.0,108.0,105.0,13.4,1505.3,325.1,-0.7,1.8,2470.306,13.32,0.047,158.9
2020-01-23T09:52:03,42.805,6.029,0.019,-0.048,-0.018,109.0,110.0,106.0,13.4,1505.3,328.4,-0.8,1.9,2470.348,13.32,0.051,158.4
2020-01-23T09:55:03,42.805,6.029,0.013,-0.05,0.009,108.0,109.0,104.0,13.4,1505.3,323.7,-0.7,1.8,2470.334,13.32,0.051,165.4
2020-01-23T09:58:03,42.805,6.029,0.014,-0.047,0.004,108.0,108.0,105.0,13.4,1505.3,325.3,-0.7,1.8,2470.327,13.32,0.049,163.4
2020-01-23T10:04:03,42.805,6.029,-0.014,-0.031,-0.003,109.0,108.0,105.0,13.4,1505.2,326.1,-0.8,1.8,2470.359,13.3,0.034,204.3
2020-01-23T10:07:03,42.805,6.029,-0.015,-0.043,0.009,109.0,108.0,104.0,13.4,1505.3,325.5,-0.7,1.8,2470.401,13.31,0.045,199.2